Regional Weather Roundup
Issued by NWS

Home | Current Version | Previous Version | Text Only | Print | Product List | Glossary Off
Versions: 1 2 3 4 5 6 7 8 9 10 11 12 13 14 15 16 17 18 19 20 21 22 23 24 25 26 27 28 29 30 31 32 33 34 35 36 37 38 39 40 41 42 43 44 45 46 47 48 49 50

740
ASUS43 KDMX 290908
RWRIA

WEATHER ROUNDUP FOR IOWA
NATIONAL WEATHER SERVICE DES MOINES IA
400 AM CDT THU SEP 29 2016

NOTE: "FAIR" INDICATES FEW OR NO CLOUDS BELOW 12,000 FEET WITH NO
SIGNIFICANT WEATHER AND/OR OBSTRUCTIONS TO VISIBILITY.

* - THESE STATIONS ARE NOT NWS STATIONS...THUS NOT UNDER NWS
QUALITY CONTROL.  THEY ALSO DO NOT REPORT WEATHER SUCH
AS PRECIPITATION OR FOG.

IAZ001>003-012>014-020>022-031>034-043>046-291000-
   NORTHWEST IOWA

CITY           SKY/WX    TMP DP  RH WIND       PRES   REMARKS
CARROLL *      CLEAR     46  46 100 NW6       30.36R
CHEROKEE *     CLEAR     44  44 100 NE3       30.39R
DENISON *      CLEAR     46  46 100 NE5       30.35S FOG
LE MARS *      CLOUDY    43  41  93 N3        30.41R
ORANGE CITY *  CLEAR     48  46  93 CALM      30.39S
SHELDON *      CLEAR     41  41 100 N5        30.38S FOG
SIOUX CITY     CLEAR     45  44  97 NW6       30.40R
SPENCER        CLEAR     43  43 100 N6        30.39R
STORM LAKE *   CLEAR     48  46  93 NE8       30.38R
$$

IAZ055>058-069>071-079>083-090>094-291000-
   SOUTHWEST IOWA

CITY           SKY/WX    TMP DP  RH WIND       PRES   REMARKS
ATLANTIC *     CLEAR     48  46  93 N5        30.35R
AUDUBON *      CLEAR     48  45  87 CALM      30.36S
CLARINDA *       N/A     46  46 100 MISG      30.35S FOG
COUNCIL BLFS * CLEAR     48  46  93 N7        30.36R
CRESTON *      CLEAR     50  48  93 N9        30.34R
HARLAN  *      CLEAR     46  46 100 N6        30.39R
LAMONI         CLEAR     50  48  93 N8        30.31R
RED OAK *      CLEAR     45  45 100 NE5       30.35R
SHENANDOAH *   CLEAR     46  45  93 N5        30.35S
$$

IAZ047>049-059>061-072>074-084-291000-
   CENTRAL IOWA

CITY           SKY/WX    TMP DP  RH WIND       PRES   REMARKS
AMES           CLEAR     50  50 100 N7        30.33R
ANKENY *         N/A    N/A N/A N/A MISG        N/A
BOONE *        CLEAR     50  48  93 N8        30.33R
CHARITON *       N/A     48  48 100 N6        30.30R
DES MOINES     CLEAR     54  50  86 N8        30.32R
GRINNELL*      CLEAR     51  49  93 N8        30.31R
KNOXVILLE *    CLEAR     52  50  93 N7        30.29R
MARSHALLTOWN   CLEAR     50  50 100 N9        30.31R
NEWTON *       CLEAR     52  50  93 N9        30.30R
PELLA *        CLEAR     50  49  94 N5        30.31R
PERRY *          N/A     49  48  99 NW5       30.34S
$$

IAZ004>006-015-016-023>025-035-036-291000-
   NORTH CENTRAL IOWA

CITY           SKY/WX    TMP DP  RH WIND       PRES   REMARKS
ALGONA *       CLEAR     46  45  93 N6        30.38R
CLARION *      CLEAR     46  46 100 NE5       30.35S
ESTHERVILLE    CLEAR     45  45 100 N5        30.39R
FORT DODGE *   CLEAR     46  43  87 N7        30.36S
MASON CITY     CLEAR     48  47  96 N6        30.37R
FOREST CITY *    N/A     48  46  93 N5        30.36S
WEBSTER CITY * CLEAR     46  46 100 N5        30.33R
IOWA FALLS *     N/A     49  48  95 N6        30.35R
$$

IAZ007>011-017>019-026>030-037>042-050>054-066-291000-
   NORTHEAST IOWA

CITY           SKY/WX    TMP DP  RH WIND       PRES   REMARKS
CEDAR RAPIDS   CLEAR     51  50  96 N8        30.26S
CHARLES CITY * CLEAR     50  50 100 VRB6      30.34S
CLINTON *      CLEAR     50  49  96 N7        30.22R
DECORAH *      PTCLDY    50  50 100 N7        30.33R
DUBUQUE        CLEAR     51  49  92 N10       30.26S
MONTICELLO *   CLEAR     52  48  87 NW6       30.26S
OELWEIN *      CLEAR     50  50 100 N8        30.32R
WATERLOO       CLEAR     50  48  93 N9        30.31R
$$

IAZ064-065-067-068-078-291000-
   EAST CENTRAL IOWA

CITY           SKY/WX    TMP DP  RH WIND       PRES   REMARKS
DAVENPORT      CLEAR     51  49  92 N12       30.22S
IOWA CITY      CLEAR     54  49  83 N10       30.27R
MT. PLEASANT * CLEAR     53  52  97 N10       30.23S
MUSCATINE *    CLEAR     54  50  87 N9        30.23S
QUAD CITIES    CLEAR     55  49  80 N8        30.20R
$$

IAZ062-063-075>077-085>089-095>099-291000-
   SOUTHEAST IOWA

CITY           SKY/WX    TMP DP  RH WIND       PRES   REMARKS
BURLINGTON     CLEAR     52  50  93 N15       30.21R
FAIRFIELD *    CLEAR     48  46  93 NW7       30.25S
FORT MADISON * CLEAR     52  48  87 N9        30.22S
KEOKUK *       CLEAR     52  50  93 N8        30.21R
OSKALOOSA *      N/A     47  46  96 N8        30.28R
OTTUMWA        CLEAR     48  45  89 N8        30.27S
WASHINGTON *     N/A    N/A N/A N/A MISG        N/A
$$

ABBREVIATIONS USED IN REMARKS
   TC - TEMPERATURES IN CELSIUS
  WCI - WIND CHILL INDEX
   HX - HEAT INDEX
  VSB - VISIBILITY
$$





USA.gov is the U.S. government's official web portal to all federal, state and local government web resources and services.